Regional Weather Roundup
Issued by NWS

Home | Current Version | Previous Version | Graphics & Text | Print | Product List | Glossary On
Versions: 1 2 3 4 5 6 7 8 9 10 11 12 13 14 15 16 17 18 19 20 21 22 23 24 25 26 27 28 29 30 31 32 33 34 35 36 37 38 39 40 41 42 43 44 45 46 47 48 49 50
000
ASUS43 KIND 221559
RWRIN

WEATHER ROUNDUP FOR INDIANA
NATIONAL WEATHER SERVICE INDIANAPOLIS IN
1200 PM EDT TUE APR 22 2014

NOTE: "FAIR" INDICATES FEW OR NO CLOUDS BELOW 12,000 FEET WITH NO
SIGNIFICANT WEATHER AND/OR OBSTRUCTIONS TO VISIBILITY.

* - STATION DOES NOT REPORT WEATHER SUCH AS PRECIPITATION OR FOG.

+ - STATION NOT QUALITY CONTROLLED BY THE NATIONAL WEATHER SERVICE.
    USE DATA WITH CAUTION...ESPECIALLY DEWPOINT AND RELATIVE
    HUMIDITY OBSERVATIONS.

INZ001>003-010>013-019-020-221700-
NORTHWEST INDIANA

CITY           SKY/WX    TMP DP  RH WIND       PRES   REMARKS
GARY /AIRPORT/ MOSUNNY   48  32  53 N17G32    30.00R
LA PORTE +     MOSUNNY   45  31  57 N20G32    29.97R
MONTICELLO +   SUNNY     51  37  58 NW18      29.95R
RENSSELAER +   SUNNY     50  36  57 N15G21    29.97R
VALPARAISO     MOSUNNY   45  30  55 N16G26    29.98R

$$

LMZ046-743>745-221700-
SOUTHERN LAKE MICHIGAN

STATION/POSITION TIME  TEMP WIND        PRES
                       AIR  DIR/SP/G
                 (UTC) (F)  (DEG/KT/KT) (MB)
MICHIGAN CITY    1500   40  320/ 19/ 22   N/A

$$

INZ004-005-014>016-021>024-221700-
NORTH CENTRAL INDIANA

CITY           SKY/WX    TMP DP  RH WIND       PRES   REMARKS
ELKHART        MOSUNNY   46  30  53 NW15G23   29.93R
GOSHEN         SUNNY     49  34  56 NW21G26   29.91R
PERU/GRISSOM   SUNNY     51  37  58 N17       29.91S
SOUTH BEND     PTSUNNY   46  31  55 N22G31    29.95R

$$

INZ006>009-017-018-025>027-221700-
NORTHEAST INDIANA

CITY           SKY/WX    TMP DP  RH WIND       PRES   REMARKS
ANGOLA *+      MOSUNNY   48  36  61 NW16      29.85S
FORT WAYNE     MOSUNNY   52  34  50 NW18G28   29.87R

$$

INZ028-029-035-036-043>045-051>053-221700-
WEST CENTRAL INDIANA

CITY           SKY/WX    TMP DP  RH WIND       PRES   REMARKS
GREENCASTLE +  SUNNY     54  36  50 N13       29.95R
LAFAYETTE      SUNNY     52  35  52 N16G23    29.96R
TERRE HAUTE    SUNNY     57  41  55 N12       29.96S

$$

INZ030>032-037>040-046>048-054>057-064-065-221700-
CENTRAL INDIANA

CITY           SKY/WX    TMP DP  RH WIND       PRES   REMARKS
ANDERSON       SUNNY     54  36  50 NW17G23   29.90
INDIANAPOLIS   SUNNY     54  37  52 N12G21    29.92S
-EAGLE CREEK   SUNNY     55  37  50 NW14      29.92R
KOKOMO *+        N/A    N/A N/A N/A MISG        N/A
MT COMFORT *+  SUNNY     57  39  51 NW15G21   29.91S
SHELBYVILLE    SUNNY     59  41  51 NW16      29.90R

$$

INZ033-034-041-042-049-050-058-059-221700-
EAST CENTRAL INDIANA

CITY           SKY/WX    TMP DP  RH WIND       PRES   REMARKS
MUNCIE         SUNNY     55  39  54 NW18G25   29.88R

$$

INZ060-061-067>069-081>083-085>088-221700-
SOUTHWEST INDIANA

CITY           SKY/WX    TMP DP  RH WIND       PRES   REMARKS
EVANSVILLE     SUNNY     66  52  60 N14G20    29.93R
HUNTINGBURG *+ PTSUNNY   64  54  68 N12G18    29.92R

$$

INZ062-063-066-070>080-084-089>092-221700-
SOUTH CENTRAL AND SOUTHEAST INDIANA

CITY           SKY/WX    TMP DP  RH WIND       PRES   REMARKS
BLOOMINGTON    SUNNY     59  41  51 N15       29.93R

$$




USA.gov is the U.S. government's official web portal to all federal, state and local government web resources and services.